STARLINK-1022

Last updated on Thu Dec 12 2019 00:02:03 GMT+0000 (Coordinated Universal Time)

1 44727U 19074Q 19345.58335648 -.00051582 00000-0 -13543-2 0 9990 2 44727 53.0051 23.6749 0001247 65.5963 71.3047 15.38094454 4705

Satellite not in orbit